KD5OH Weather Reports


Display with metric or nautical units.
time (UTC)temp
F
wind
direction
speed
MPH
gust
MPH
rain 1hr
in
rain 24hr
in
rain mn
in
humidity
%
barometer
mb
20260905134622 75 157 5.0 11.0 0.00 0.00 0.00 56 1019.3
20260905133134 74 147 4.0 10.0 0.00 0.00 0.00 57 1019.2
20260905131650 72 137 4.0 9.0 0.00 0.00 0.00 58 1018.9
20260905130121 71 132 4.0 6.0 0.00 0.00 0.00 57 1018.7
20260905124654 71 151 3.0 6.0 0.00 0.00 0.00 57 1018.5
20260905123129 71 133 4.0 6.0 0.00 0.00 0.00 58 1018.2
20260905121641 71 146 3.0 7.0 0.00 0.00 0.00 58 1018.0
20260905120136 71 147 2.0 6.0 0.00 0.00 0.00 58 1017.7
20260905114628 70 156 3.0 7.0 0.00 0.00 0.00 59 1017.9
20260905113124 68 142 2.0 4.0 0.00 0.00 0.00 58 1017.7
20260905111656 67 135 1.0 2.0 0.00 0.00 0.00 60 1017.5
20260905110150 67 221 0.0 1.0 0.00 0.00 0.00 61 1017.4
20260905104645 67 56 0.0 0.0 0.00 0.00 0.00 61 1017.4
20260905103157 67 56 0.0 0.0 0.00 0.00 0.00 58 1017.1
20260905101628 69 58 0.0 1.0 0.00 0.00 0.00 56 1017.0
20260905100146 69 59 0.0 1.0 0.00 0.00 0.00 56 1016.9
20260905094637 70 282 0.0 0.0 0.00 0.00 0.00 54 1017.0
20260905093133 70 282 0.0 1.0 0.00 0.00 0.00 55 1017.0
20260905091645 71 151 0.0 0.0 0.00 0.00 0.00 54 1016.9
20260905090135 72 151 0.0 0.0 0.00 0.00 0.00 53 1016.9
20260905084652 72 151 0.0 1.0 0.00 0.00 0.00 52 1016.9
20260905083125 72 121 0.0 0.0 0.00 0.00 0.00 52 1016.9
20260905081621 73 121 0.0 0.0 0.00 0.00 0.00 52 1017.0
20260905080135 73 121 0.0 1.0 0.00 0.00 0.00 51 1017.1
20260905074624 73 103 1.0 2.0 0.00 0.00 0.00 52 1017.2
20260905073120 73 118 0.0 1.0 0.00 0.00 0.00 51 1017.1
20260905071631 74 150 0.0 1.0 0.00 0.00 0.00 49 1017.3
20260905070127 74 111 0.0 0.0 0.00 0.00 0.00 49 1017.3
20260905064620 74 111 0.0 0.0 0.00 0.00 0.00 49 1017.2
20260905063136 75 110 0.0 0.0 0.00 0.00 0.00 48 1017.2
20260905061652 75 110 0.0 0.0 0.00 0.00 0.00 48 1017.3
20260905060122 75 111 0.0 0.0 0.00 0.00 0.00 47 1017.3
20260905054635 75 110 0.0 0.0 0.00 0.00 0.00 47 1017.1
20260905053131 75 254 0.0 0.0 0.00 0.00 0.00 46 1017.1
20260905051643 76 151 0.0 0.0 0.00 0.00 0.00 46 1017.4
20260905050138 76 151 0.0 0.0 0.00 0.00 0.00 44 1017.5
20260905044629 76 222 0.0 1.0 0.00 0.00 0.00 43 1017.4
20260905043122 78 229 0.0 1.0 0.00 0.00 0.00 41 1017.4
20260905041639 81 101 0.0 1.0 0.00 0.00 0.00 39 1017.4
20260905040130 80 123 1.0 2.0 0.00 0.00 0.00 39 1017.4
20260905034624 79 40 0.0 0.0 0.00 0.00 0.00 38 1017.3
20260905033136 80 40 0.0 1.0 0.00 0.00 0.00 37 1017.2
20260905031628 81 75 0.0 2.0 0.00 0.00 0.00 36 1017.0
20260905030124 81 45 0.0 0.0 0.00 0.00 0.00 37 1016.8
20260905024634 80 305 0.0 2.0 0.00 0.00 0.00 38 1016.7
20260905023128 81 12 0.0 0.0 0.00 0.00 0.00 36 1016.7
20260905021639 82 12 0.0 0.0 0.00 0.00 0.00 35 1016.4
20260905020129 82 12 0.0 0.0 0.00 0.00 0.00 35 1016.2
20260905014644 84 12 0.0 0.0 0.00 0.00 0.00 33 1016.2
20260905013157 85 12 0.0 0.0 0.00 0.00 0.00 32 1016.2
20260905011630 86 12 0.0 0.0 0.00 0.00 0.00 31 1016.1
20260905010123 86 12 0.0 1.0 0.00 0.00 0.00 32 1016.1
20260905004635 88 319 0.0 3.0 0.00 0.00 0.00 30 1016.1
20260905003151 90 230 0.0 2.0 0.00 0.00 0.00 28 1015.9
20260905001622 90 222 1.0 4.0 0.00 0.00 0.00 28 1015.9
20260905000200 91 223 1.0 5.0 0.00 0.00 0.00 27 1015.8
20260904234631 91 125 0.0 6.0 0.00 0.00 0.00 27 1015.9
20260904233125 92 139 1.0 5.0 0.00 0.00 0.00 26 1015.9
20260904231658 91 172 2.0 6.0 0.00 0.00 0.00 27 1015.8
20260904230129 92 139 3.0 7.0 0.00 0.00 0.00 26 1015.8
20260904224645 93 262 1.0 8.0 0.00 0.00 0.00 27 1015.9
20260904223135 93 141 4.0 8.0 0.00 0.00 0.00 26 1016.1
20260904221626 92 182 4.0 7.0 0.00 0.00 0.00 26 1016.2
20260904220122 92 219 5.0 12.0 0.00 0.00 0.00 26 1016.3
20260904214633 91 40 1.0 6.0 0.00 0.00 0.00 27 1016.3
20260904213151 92 246 4.0 8.0 0.00 0.00 0.00 26 1016.5
20260904211642 92 127 5.0 8.0 0.00 0.00 0.00 28 1016.6
20260904210131 92 170 4.0 10.0 0.00 0.00 0.00 27 1016.7
20260904204626 91 204 5.0 10.0 0.00 0.00 0.00 29 1016.9
20260904203159 91 221 4.0 12.0 0.00 0.00 0.00 29 1017.1
20260904201633 91 131 3.0 6.0 0.00 0.00 0.00 29 1017.3
20260904200125 89 260 3.0 8.0 0.00 0.00 0.00 31 1017.8
20260904194640 88 266 3.0 9.0 0.00 0.00 0.00 32 1018.0
20260904193132 87 228 5.0 9.0 0.00 0.00 0.00 33 1018.2
20260904191623 87 233 2.0 8.0 0.00 0.00 0.00 33 1018.3
20260904190201 87 281 4.0 7.0 0.00 0.00 0.00 32 1018.6
20260904183128 87 265 1.0 7.0 0.00 0.00 0.00 32 1018.9
20260904181640 87 313 4.0 8.0 0.00 0.00 0.00 33 1019.1
20260904180136 87 329 2.0 8.0 0.00 0.00 0.00 34 1019.5
20260904174628 86 74 1.0 9.0 0.00 0.00 0.00 35 1019.9
20260904173140 86 311 1.0 7.0 0.00 0.00 0.00 36 1019.9
20260904171635 83 241 2.0 7.0 0.00 0.00 0.00 40 1020.2
20260904170127 82 19 2.0 6.0 0.00 0.00 0.00 44 1020.4
20260904164621 80 77 0.0 2.0 0.00 0.00 0.00 46 1020.4
20260904163134 78 163 1.0 4.0 0.00 0.00 0.00 48 1020.4
20260904161646 78 142 2.0 5.0 0.00 0.00 0.00 49 1020.5
20260904160141 76 102 2.0 5.0 0.00 0.00 0.00 52 1020.2
20260904154653 75 166 2.0 5.0 0.00 0.00 0.00 54 1020.3
20260904153127 75 161 2.0 6.0 0.00 0.00 0.00 54 1020.3
20260904151640 75 165 3.0 6.0 0.00 0.00 0.00 53 1020.2
20260904150136 75 151 3.0 7.0 0.00 0.00 0.00 54 1020.2
20260904144627 75 139 3.0 7.0 0.00 0.00 0.00 54 1020.2
20260904143159 75 135 3.0 6.0 0.00 0.00 0.00 54 1020.2
20260904141632 75 142 3.0 6.0 0.00 0.00 0.00 54 1019.8